DW8458 Weather Reports


time (UTC)temp
F
wind
direction
speed
knots
gust
knots
rain 1hr
in
rain 24hr
in
rain mn
in
humidity
%
barometer
mb
20260506024520 0 0.0 0.0 0.00 0.00 0.00 1013.9
20260506023022 0 0.0 0.0 0.00 0.00 0.00 1013.9
20260506021510 0 0.0 0.0 0.00 0.00 0.00 1013.9
20260506020006 0 0.0 0.0 0.00 0.00 0.00 1014.0
20260506014500 0 0.0 0.0 0.00 0.00 0.00 1014.0
20260506013108 0 0.0 0.0 0.00 0.00 0.00 1014.0
20260506011613 0 0.0 0.0 0.00 0.00 0.00 1014.1
20260506010055 0 0.0 0.0 0.00 0.00 0.00 1014.0
20260506004542 0 0.0 0.0 0.00 0.00 0.00 1014.1
20260506003039 0 0.0 0.0 0.00 0.00 0.00 1014.2
20260506001536 0 0.0 0.0 0.00 0.00 0.00 1014.2
20260506000030 0 0.0 0.0 0.00 0.00 0.00 1014.3
20260505234526 0 0.0 0.0 0.00 0.00 0.00 1014.3
20260505233022 0 0.0 0.0 0.00 0.00 0.00 1014.3
20260505231533 0 0.0 0.0 0.00 0.00 0.00 1014.4
20260505230021 0 0.0 0.0 0.00 0.00 0.00 1014.4
20260505224513 0 0.0 0.0 0.00 0.00 0.00 1014.4
20260505223005 0 0.0 0.0 0.00 0.00 0.00 1014.3
20260505221604 0 0.0 0.0 0.00 0.00 0.00 1014.3
20260505220100 0 0.0 0.0 0.00 0.00 0.00 1014.4
20260505214557 0 0.0 0.0 0.00 0.00 0.00 1014.5
20260505213046 0 0.0 0.0 0.00 0.00 0.00 1014.3
20260505211542 0 0.0 0.0 0.00 0.00 0.00 1014.1
20260505210037 0 0.0 0.0 0.00 0.00 0.00 1014.0
20260505204534 0 0.0 0.0 0.00 0.00 0.00 1014.1
20260505203050 49 103 1.7 7.8 0.00 0.00 0.00 77 1014.0
20260505201536 49 103 2.6 7.8 0.00 0.00 0.00 77 1013.9
20260505200030 50 103 0.0 4.3 0.00 0.00 0.00 78 1013.7
20260505194529 50 103 0.9 3.5 0.00 0.00 0.00 78 1013.6
20260505193032 50 103 0.9 7.0 0.00 0.00 0.00 77 1013.5
20260505191529 51 103 0.9 3.5 0.00 0.00 0.00 76 1013.3
20260505190033 51 103 1.7 6.1 0.00 0.00 0.00 75 1013.1
20260505184534 52 103 1.7 8.7 0.00 0.00 0.00 75 1013.0
20260505183027 52 103 2.6 8.7 0.00 0.00 0.00 74 1012.9
20260505181533 53 103 4.3 12.2 0.00 0.00 0.00 74 1012.8
20260505180027 55 103 4.3 13.9 0.00 0.00 0.00 72 1012.6
20260505174532 56 103 4.3 10.4 0.00 0.00 0.00 65 1012.4
20260505173025 56 103 5.2 7.8 0.00 0.00 0.00 64 1012.5
20260505171525 57 103 2.6 9.6 0.00 0.00 0.00 65 1012.6
20260505170024 58 103 4.3 8.7 0.00 0.00 0.00 64 1012.5
20260505164524 58 103 1.7 6.1 0.00 0.00 0.00 64 1012.5
20260505163029 58 103 2.6 7.8 0.00 0.00 0.00 63 1012.4
20260505161523 59 103 0.9 5.2 0.00 0.00 0.00 63 1012.5
20260505153022 60 103 1.7 7.0 0.00 0.00 0.00 61 1012.7
20260505151521 60 103 2.6 6.1 0.00 0.00 0.00 64 1012.7
20260505124515 60 103 2.6 7.0 0.00 0.00 0.00 64 1012.9
20260505123014 60 103 1.7 6.1 0.00 0.00 0.00 66 1012.8
20260505121516 60 103 0.9 7.0 0.00 0.00 0.00 65 1012.7
20260505120014 61 103 2.6 8.7 0.00 0.00 0.00 65 1012.8
20260505114516 60 103 0.9 5.2 0.00 0.00 0.00 66 1012.8
20260505113017 61 103 0.9 8.7 0.00 0.00 0.00 67 1012.8
20260505111511 60 103 2.6 7.0 0.00 0.00 0.00 63 1012.9
20260505101504 60 103 2.6 7.8 0.00 0.00 0.00 63 1013.3
20260505100002 60 103 1.7 7.0 0.00 0.00 0.00 62 1013.3
20260505094558 60 103 0.9 6.1 0.00 0.00 0.00 64 1013.4
20260505093055 59 103 1.7 7.8 0.00 0.00 0.00 66 1013.5
20260505091551 58 103 1.7 7.8 0.00 0.00 0.00 67 1013.4
20260505090059 57 103 0.0 7.8 0.00 0.00 0.00 70 1013.6
20260505084549 56 103 0.9 7.0 0.00 0.00 0.00 73 1013.7
20260505083040 54 324 0.0 4.3 0.00 0.00 0.00 75 1013.7
20260505081542 53 103 0.9 4.3 0.00 0.00 0.00 76 1013.7
20260505080034 53 103 0.0 4.3 0.00 0.00 0.00 76 1013.7
20260505074533 53 103 0.0 4.3 0.00 0.00 0.00 78 1013.6
20260505073037 53 103 0.9 5.2 0.00 0.00 0.00 84 1013.6
20260505071526 50 103 0.0 4.3 0.00 0.00 0.00 90 1013.6
20260505070022 47 103 0.0 3.5 0.00 0.00 0.00 91 1013.9
20260505064522 47 103 0.0 0.0 0.00 0.00 0.00 91 1014.0
20260505063019 46 103 0.0 2.6 0.00 0.00 0.00 91 1013.9
20260505061519 46 103 0.0 2.6 0.00 0.00 0.00 92 1014.0
20260505060029 46 103 0.9 3.5 0.00 0.00 0.00 92 1014.0
20260505054531 45 103 0.0 0.9 0.00 0.00 0.00 92 1014.0
20260505053014 44 103 0.0 0.9 0.00 0.00 0.00 92 1014.1
20260505051511 43 103 0.0 0.0 0.00 0.00 0.00 92 1013.9
20260505041503 44 103 0.0 0.0 0.00 0.00 0.00 91 1013.7
20260505040002 44 103 0.0 0.0 0.00 0.00 0.00 91 1013.6
20260505034501 44 103 0.0 0.0 0.00 0.00 0.00 91 1013.6
20260505033116 44 103 0.0 0.0 0.00 0.00 0.00 90 1013.7
20260505031557 45 103 0.0 0.0 0.00 0.00 0.00 90 1013.6
20260505030056 45 103 0.0 0.0 0.00 0.00 0.00 90 1013.6
20260505024558 46 103 0.0 0.0 0.00 0.00 0.00 90 1013.6